Probability
32 13 0 0 0 0 0 0 0 0 0 0 0 0 0 0 0 0 0 0 3 3 13 32 45 45 42 39 39 45 45 48 42 52 48 45 45 45 39 42 35 32 39 39 48 48 39 45 45
19 13 3 0 0 0 0 0 0 0 0 0 0 0 0 0 0 0 0 3 3 6 13 32 42 42 39 39 45 48 39 42 45 45 45 42 45 45 45 39 32 35 39 39 39 39 35 48 45
16 6 0 0 0 0 0 0 0 0 0 0 0 0 0 0 0 0 0 3 3 10 13 29 39 39 42 45 45 42 39 45 45 45 45 48 48 52 48 39 35 32 32 39 29 29 35 35 32
0 0 0 0 0 0 0 0 0 0 0 0 0 0 0 0 0 0 3 3 6 10 13 26 35 35 32 39 42 39 42 42 45 48 48 52 52 39 39 39 35 29 26 29 26 26 23 29 35
0 0 0 0 0 0 0 0 0 0 0 0 0 0 0 0 0 3 3 3 6 10 13 23 35 32 39 32 35 39 39 39 39 42 42 45 32 32 35 39 29 26 23 23 19 23 23 26 23
0 0 0 0 0 0 0 0 0 0 0 0 0 0 0 0 3 3 3 3 6 6 10 19 26 26 32 29 26 35 35 35 32 29 39 35 26 26 29 29 23 16 19 16 23 26 16 19 26
0 0 0 0 0 0 0 0 0 0 0 0 0 0 0 0 0 3 3 3 6 6 6 10 16 19 23 26 26 29 29 29 29 26 29 26 29 26 23 23 16 13 13 19 19 19 19 19 23
0 0 0 0 0 0 0 0 0 0 0 0 0 0 0 0 0 0 0 0 3 6 6 6 6 6 10 13 19 19 23 19 23 23 23 23 16 13 13 13 13 13 16 13 16 19 16 16 19
0 0 0 0 0 0 0 0 0 0 0 3 0 0 0 0 0 0 0 0 0 3 3 6 0 0 6 6 6 13 13 13 10 6 13 6 3 3 6 10 13 13 13 13 16 16 10 6 13
0 0 0 0 0 0 0 0 0 0 0 0 0 0 0 0 0 0 0 0 0 0 0 0 0 0 0 6 0 0 6 3 0 0 3 0 0 0 0 3 10 6 6 10 10 13 6 3 0
0 0 0 0 0 0 0 0 0 0 0 0 0 0 0 0 0 0 0 0 0 0 0 0 0 0 0 0 0 0 0 0 0 0 0 0 0 0 0 0 0 3 3 3 3 3 3 0 0
0 0 0 0 0 0 0 0 0 0 0 0 0 0 0 0 0 0 0 0 0 0 0 0 0 0 0 0 0 0 0 0 0 0 0 0 0 0 0 0 0 0 0 0 0 0 3 0 0
0 0 0 0 0 0 0 0 0 0 0 0 0 0 0 0 0 0 0 0 0 0 0 0 0 0 0 0 0 0 0 0 0 0 0 0 0 0 0 0 0 0 0 0 0 0 0 0 0
0 0 0 0 0 0 0 0 0 0 0 0 0 0 0 0 0 0 0 0 0 0 0 0 0 0 0 0 0 0 0 0 0 0 0 0 0 0 0 0 0 0 0 0 0 0 0 0 0
0 0 0 0 0 0 0 0 0 0 0 0 0 0 0 0 0 0 0 0 0 0 0 0 0 0 0 0 0 0 0 0 0 0 0 0 0 0 0 0 0 0 0 0 0 0 0 0 0
0 0 0 0 0 0 0 0 0 0 0 0 0 0 0 0 0 0 0 0 0 0 0 0 0 0 0 0 0 0 0 0 0 0 0 0 0 0 0 0 0 0 0 0 0 0 0 0 0
0 0 0 0 0 0 0 0 0 0 0 0 0 0 0 0 0 0 0 0 0 0 0 0 0 0 0 0 0 0 0 0 0 0 0 0 0 0 0 0 0 0 0 0 0 0 0 0 0
0 0 0 0 0 0 0 0 0 0 0 0 0 0 0 0 0 0 0 0 0 0 0 0 0 0 0 0 0 0 0 0 0 0 0 0 0 0 0 0 0 0 0 0 0 0 0 0 0
0 0 0 0 0 0 0 0 0 0 0 0 0 0 0 0 0 0 0 0 0 0 0 0 0 0 0 0 0 0 0 0 0 0 0 0 0 0 0 0 0 0 0 0 0 0 0 0 0
0 0 0 0 0 0 0 0 0 0 0 0 0 0 0 0 0 0 0 0 0 0 0 0 0 0 0 0 0 0 0 0 0 0 0 0 0 0 0 0 0 0 0 0 0 0 0 0 0
0 0 0 0 0 0 0 0 0 0 0 0 0 0 0 0 0 0 0 0 0 0 0 0 0 0 0 0 0 0 0 0 0 0 0 0 0 0 0 0 0 0 0 0 0 0 0 0 0
0 0 0 0 0 0 0 0 0 0 0 0 0 0 0 0 0 0 0 0 0 0 0 0 0 0 0 0 0 0 0 0 0 0 0 0 0 0 0 0 0 0 0 0 0 0 0 0 0
0 0 0 0 0 0 0 0 0 0 0 0 0 0 0 0 0 0 0 0 0 0 0 0 0 0 0 0 0 0 0 0 0 0 0 0 0 0 0 0 0 0 0 0 0 0 0 0 0
0 0 0 0 0 0 0 0 0 0 0 0 0 0 0 0 0 0 0 0 0 0 0 0 0 0 0 0 0 0 0 0 0 0 0 0 0 0 0 0 0 0 0 0 0 0 0 0 0
0 0 0 0 0 0 0 0 0 0 0 0 0 0 0 0 0 0 0 0 0 0 0 0 0 0 0 0 0 0 0 0 0 0 0 0 0 0 0 0 0 0 0 0 0 0 0 0 0
0 0 0 0 0 0 0 0 0 0 0 0 0 0 0 0 0 0 0 0 0 0 0 0 0 0 0 0 0 0 0 0 0 0 0 0 0 0 0 0 0 0 0 0 0 0 0 0 0
0 0 0 0 0 0 0 0 0 0 0 0 0 0 0 0 0 0 0 0 0 0 0 0 0 0 0 0 0 0 0 0 0 0 0 0 0 0 0 0 0 0 0 0 0 0 0 0 0
0 0 0 0 0 0 0 0 0 0 0 0 0 0 0 0 0 0 0 0 0 0 0 0 0 0 0 0 0 0 0 0 0 0 0 0 0 0 0 0 0 0 0 0 0 0 0 0 0
0 0 0 0 0 0 0 0 0 0 0 0 0 0 0 0 0 0 0 0 0 0 0 0 0 0 0 0 0 0 0 0 0 0 0 0 0 0 0 0 0 0 0 0 0 0 0 0 0
0 0 0 0 0 0 0 0 0 0 0 0 0 0 0 0 0 0 0 0 0 0 0 0 0 0 0 0 0 0 0 0 0 0 0 0 0 0 0 0 0 0 0 0 0 0 0 0 0
Height
5873 5873 5875 5876 5877 5877 5877 5878 5878 5878 5878 5879 5879 5880 5880 5881 5882 5884 5882 5881 5881 5881 5880 5880 5880 5879 5878 5878 5877 5877 5876 5876 5875 5875 5875 5875 5875 5874 5874 5874 5874 5874 5873 5872 5869 5867 5870 5872 5872
5872 5873 5875 5876 5876 5876 5877 5877 5877 5877 5878 5878 5879 5880 5880 5880 5880 5881 5880 5880 5880 5880 5880 5880 5879 5879 5878 5878 5877 5877 5876 5875 5875 5875 5874 5874 5874 5874 5874 5873 5873 5873 5872 5870 5867 5866 5868 5871 5871
5872 5873 5875 5875 5875 5876 5877 5877 5877 5877 5878 5878 5879 5879 5879 5879 5880 5880 5880 5879 5880 5880 5879 5879 5879 5878 5878 5877 5877 5876 5876 5875 5874 5874 5873 5873 5873 5873 5873 5872 5872 5872 5871 5870 5869 5868 5869 5870 5870
5872 5874 5875 5875 5875 5876 5876 5876 5876 5877 5877 5878 5878 5878 5879 5879 5879 5879 5879 5879 5879 5879 5879 5878 5878 5878 5877 5877 5876 5876 5875 5874 5874 5873 5872 5872 5872 5872 5872 5871 5871 5871 5871 5870 5869 5869 5869 5870 5870
5872 5873 5874 5874 5874 5875 5875 5875 5876 5876 5876 5877 5877 5878 5878 5878 5878 5878 5878 5878 5878 5878 5878 5878 5877 5877 5877 5876 5875 5875 5874 5873 5872 5872 5871 5871 5871 5871 5870 5870 5870 5870 5870 5869 5869 5869 5869 5869 5869
5872 5872 5873 5873 5873 5874 5874 5874 5875 5875 5875 5876 5877 5877 5877 5877 5877 5877 5877 5877 5877 5877 5877 5876 5876 5876 5876 5875 5874 5874 5873 5872 5871 5871 5870 5870 5870 5869 5869 5869 5869 5869 5868 5868 5868 5868 5868 5867 5868
5872 5872 5872 5872 5873 5873 5874 5874 5874 5874 5875 5875 5876 5876 5876 5876 5876 5876 5876 5876 5876 5876 5875 5875 5875 5875 5875 5874 5873 5873 5872 5871 5870 5870 5869 5869 5868 5868 5868 5867 5867 5867 5867 5867 5867 5867 5867 5867 5866
5870 5871 5871 5871 5872 5872 5873 5872 5873 5873 5874 5874 5875 5875 5875 5875 5875 5875 5875 5875 5875 5874 5874 5874 5874 5874 5873 5873 5872 5871 5871 5870 5869 5868 5868 5867 5867 5867 5866 5866 5866 5866 5866 5866 5866 5866 5866 5865 5865
5869 5871 5870 5870 5871 5871 5871 5871 5872 5872 5872 5873 5873 5873 5873 5873 5873 5874 5874 5873 5873 5873 5873 5873 5873 5872 5872 5871 5871 5870 5869 5868 5868 5867 5866 5866 5866 5865 5865 5864 5864 5864 5865 5865 5865 5864 5864 5864 5864
5868 5868 5869 5869 5870 5870 5870 5870 5871 5871 5871 5872 5872 5872 5872 5872 5872 5872 5872 5872 5872 5872 5872 5871 5871 5871 5870 5870 5869 5869 5868 5867 5866 5866 5865 5865 5865 5864 5864 5863 5863 5863 5863 5863 5864 5864 5863 5863 5863
5866 5866 5867 5867 5868 5868 5868 5869 5869 5869 5870 5870 5870 5871 5871 5871 5871 5871 5871 5871 5870 5870 5870 5870 5869 5869 5869 5868 5868 5867 5866 5866 5865 5865 5864 5864 5863 5863 5862 5862 5862 5862 5862 5862 5862 5862 5862 5862 5861
5864 5865 5865 5866 5866 5866 5867 5867 5868 5868 5869 5869 5869 5869 5869 5869 5869 5870 5869 5869 5869 5868 5868 5868 5868 5867 5867 5866 5866 5865 5865 5864 5864 5863 5863 5862 5862 5861 5861 5861 5861 5861 5861 5861 5861 5860 5860 5860 5860
5863 5863 5863 5864 5864 5865 5865 5865 5866 5867 5867 5867 5867 5867 5867 5868 5868 5868 5868 5868 5867 5867 5867 5866 5866 5865 5865 5865 5865 5864 5863 5863 5863 5862 5862 5861 5861 5860 5860 5860 5859 5859 5859 5859 5859 5859 5859 5858 5858
5861 5861 5862 5862 5863 5863 5864 5864 5865 5865 5865 5865 5865 5866 5866 5866 5866 5866 5866 5866 5865 5865 5865 5864 5864 5863 5863 5863 5863 5862 5862 5861 5861 5861 5860 5860 5859 5859 5859 5858 5858 5858 5858 5858 5857 5857 5857 5857 5856
5859 5860 5860 5861 5861 5861 5862 5863 5863 5863 5863 5863 5864 5864 5864 5864 5864 5864 5864 5864 5864 5863 5863 5863 5862 5862 5862 5861 5861 5861 5861 5860 5860 5859 5859 5859 5858 5858 5857 5857 5857 5857 5856 5856 5856 5855 5855 5855 5854
5857 5858 5859 5859 5859 5860 5862 5862 5862 5861 5861 5862 5862 5862 5862 5862 5862 5862 5862 5862 5862 5862 5861 5861 5861 5860 5860 5860 5860 5859 5859 5859 5858 5858 5857 5857 5857 5856 5856 5856 5855 5855 5855 5854 5854 5854 5853 5853 5852
5855 5856 5857 5858 5858 5858 5859 5860 5860 5859 5860 5860 5860 5860 5860 5860 5860 5860 5860 5860 5860 5860 5859 5859 5859 5859 5858 5858 5858 5857 5857 5857 5857 5856 5856 5856 5855 5855 5855 5854 5854 5853 5853 5853 5852 5852 5851 5851 5850
5854 5854 5855 5856 5856 5857 5857 5858 5858 5857 5858 5858 5858 5858 5858 5858 5858 5858 5858 5858 5858 5858 5858 5857 5857 5857 5857 5856 5856 5856 5856 5856 5855 5855 5854 5854 5854 5853 5853 5852 5852 5852 5851 5851 5850 5850 5849 5849 5849
5852 5853 5854 5854 5855 5855 5855 5856 5856 5856 5856 5856 5856 5856 5856 5856 5856 5856 5856 5856 5856 5856 5856 5856 5856 5855 5855 5855 5854 5854 5854 5854 5853 5853 5853 5852 5852 5851 5851 5851 5850 5850 5850 5849 5848 5848 5847 5847 5846
5851 5851 5852 5853 5853 5853 5853 5854 5854 5854 5854 5854 5854 5854 5854 5854 5854 5854 5854 5854 5854 5854 5854 5854 5853 5853 5853 5853 5853 5852 5852 5852 5851 5851 5851 5850 5850 5849 5849 5848 5848 5848 5848 5847 5847 5846 5845 5845 5844
5849 5850 5850 5851 5851 5851 5852 5853 5853 5852 5852 5852 5852 5852 5852 5852 5852 5852 5852 5852 5852 5852 5852 5851 5851 5851 5851 5851 5851 5850 5850 5850 5849 5849 5849 5848 5848 5847 5847 5847 5846 5846 5845 5845 5845 5844 5844 5843 5842
5847 5848 5848 5848 5849 5850 5851 5851 5851 5851 5850 5850 5850 5850 5850 5850 5850 5850 5850 5850 5850 5849 5849 5849 5849 5849 5849 5848 5848 5848 5847 5847 5847 5846 5846 5846 5846 5845 5845 5844 5844 5844 5843 5843 5842 5842 5841 5841 5840
5845 5845 5846 5846 5847 5848 5848 5849 5850 5849 5849 5848 5848 5848 5848 5848 5848 5848 5847 5847 5847 5847 5847 5846 5846 5846 5846 5846 5846 5845 5845 5845 5844 5844 5843 5843 5843 5843 5842 5842 5842 5841 5841 5840 5840 5840 5839 5838 5838
5842 5843 5844 5844 5845 5846 5846 5847 5848 5847 5846 5846 5846 5846 5846 5846 5845 5845 5845 5845 5844 5844 5844 5843 5843 5843 5843 5843 5843 5843 5842 5842 5841 5841 5841 5841 5840 5840 5840 5839 5839 5839 5838 5838 5837 5837 5836 5835 5834
5841 5842 5842 5842 5843 5844 5844 5844 5846 5844 5844 5843 5843 5843 5843 5843 5843 5843 5842 5842 5841 5841 5841 5840 5840 5840 5840 5839 5839 5839 5839 5838 5838 5838 5838 5837 5837 5837 5837 5836 5836 5836 5835 5835 5834 5833 5833 5832 5831
5838 5839 5840 5841 5841 5842 5842 5842 5843 5842 5841 5841 5841 5841 5840 5840 5840 5840 5839 5839 5838 5838 5837 5836 5836 5836 5836 5836 5835 5835 5835 5835 5834 5834 5834 5834 5834 5834 5833 5833 5833 5832 5832 5831 5831 5830 5829 5828 5828
5835 5835 5837 5837 5837 5838 5839 5840 5840 5839 5839 5839 5838 5838 5837 5837 5837 5836 5836 5835 5834 5834 5833 5833 5832 5832 5832 5831 5831 5831 5830 5830 5830 5830 5830 5830 5830 5830 5830 5829 5829 5828 5828 5827 5827 5826 5825 5825 5824
5832 5832 5833 5833 5833 5834 5836 5836 5837 5836 5836 5836 5835 5834 5834 5834 5833 5833 5832 5831 5831 5830 5829 5829 5828 5828 5827 5827 5827 5826 5826 5826 5826 5826 5826 5826 5826 5826 5825 5825 5824 5824 5823 5823 5823 5822 5821 5820 5820
5829 5829 5829 5829 5830 5831 5831 5835 5833 5833 5832 5832 5832 5831 5831 5830 5829 5829 5828 5827 5826 5826 5825 5824 5824 5823 5823 5822 5822 5822 5821 5821 5821 5821 5821 5821 5821 5821 5820 5820 5820 5819 5819 5818 5818 5817 5816 5816 5815
5824 5824 5825 5826 5826 5826 5827 5831 5828 5828 5828 5828 5828 5827 5827 5826 5825 5824 5824 5823 5822 5821 5820 5820 5819 5818 5818 5818 5817 5817 5816 5816 5816 5816 5816 5816 5816 5815 5815 5815 5815 5814 5814 5813 5812 5812 5811 5810 5810
Wind_Speed
3 4 4 5 4 4 4 3 3 3 2 3 3 2 1 1 1 1 2 2 2 2 3 3 3 4 4 4 4 5 4 4 4 4 4 5 5 5 5 5 6 6 6 6 6 5 5 5 5
4 4 4 4 5 4 4 4 3 3 3 2 2 2 2 2 2 2 3 3 3 2 3 3 3 4 4 4 4 5 5 5 5 5 5 5 5 5 5 6 6 6 5 6 5 4 4 5 5
4 5 5 4 4 5 5 4 3 2 2 2 2 2 2 2 2 3 3 3 3 3 3 3 4 4 4 4 4 5 5 5 5 5 5 5 5 5 5 6 6 6 6 5 4 3 4 5 5
5 5 5 4 4 4 4 4 4 4 3 3 2 2 3 3 3 4 4 4 4 4 4 4 4 4 5 5 5 5 5 6 6 6 6 6 6 5 6 6 6 6 6 5 5 4 5 5 5
5 5 5 5 4 4 5 5 5 5 4 4 4 3 3 3 4 4 4 4 4 5 4 4 5 5 5 5 5 6 6 6 6 6 6 6 6 6 6 6 7 6 6 6 5 5 5 5 6
5 5 5 5 4 4 4 5 5 5 5 5 5 5 4 4 4 4 4 5 5 5 5 5 5 5 6 6 6 6 7 7 7 7 6 6 6 6 6 6 7 7 6 6 6 5 5 6 5
5 5 5 5 5 5 5 5 5 5 5 5 5 6 5 5 5 5 5 5 6 6 6 5 5 5 6 6 6 6 7 7 7 7 7 6 6 7 7 7 7 6 6 6 6 6 6 6 5
6 6 6 6 6 6 6 6 6 5 5 5 5 6 6 5 5 5 6 6 6 6 6 6 6 6 6 6 6 6 7 7 7 7 6 6 6 7 7 7 6 6 6 6 6 6 6 5 6
7 7 7 7 7 7 6 6 7 6 6 6 6 6 6 5 5 6 6 6 6 6 6 6 6 6 6 6 7 8 7 7 7 7 6 6 6 7 7 7 6 6 6 6 6 6 7 7 7
7 8 8 8 8 7 7 7 7 6 7 7 7 6 6 5 5 5 6 6 6 6 6 7 7 7 7 7 7 8 8 7 7 7 7 6 6 7 7 7 6 7 7 7 7 8 8 9 8
8 8 9 9 9 8 8 8 7 7 7 7 7 6 6 6 6 6 6 7 7 7 7 7 7 7 8 8 8 8 7 7 7 7 6 6 7 7 7 7 7 7 7 7 7 8 9 9 9
9 9 9 9 9 8 8 8 8 8 7 8 7 7 6 7 7 7 7 7 7 8 8 8 8 8 8 8 8 7 7 7 7 7 7 7 7 7 7 7 7 7 7 7 7 8 9 9 9
9 9 9 9 9 8 9 9 9 9 9 7 7 7 6 7 8 8 8 8 8 8 8 8 8 9 8 7 8 7 7 7 7 6 6 6 6 6 6 7 7 7 7 7 8 8 8 9 9
10 10 9 9 9 9 9 8 9 9 9 9 8 7 7 7 7 7 8 8 9 9 9 8 8 8 7 7 8 7 7 6 6 6 7 6 6 6 7 7 7 7 7 8 8 8 8 8 9
10 10 9 9 10 10 9 9 8 9 9 9 8 7 7 7 8 8 8 8 9 8 8 9 9 8 7 8 8 8 7 6 6 6 6 6 7 7 7 7 8 8 8 8 8 8 9 9 8
10 10 9 9 9 10 10 9 9 9 10 10 9 9 8 8 8 8 8 8 8 8 8 9 8 8 8 8 8 8 7 6 6 6 6 6 7 8 8 7 8 8 8 7 7 8 8 8 8
9 9 9 9 9 9 10 9 9 9 10 10 10 10 9 8 8 9 9 8 8 8 7 8 7 7 7 7 7 7 6 6 7 7 7 7 7 8 7 8 8 8 7 7 7 8 8 8 8
8 9 9 9 9 9 9 9 8 9 9 9 9 9 9 9 8 9 9 8 8 8 7 7 8 8 8 7 7 7 7 7 7 7 7 7 7 8 8 8 8 8 7 7 7 8 8 9 9
8 8 8 8 9 9 9 9 8 8 9 9 9 9 9 8 8 8 8 8 8 8 8 8 8 8 8 8 8 7 8 8 8 8 8 8 8 8 8 8 8 8 8 8 8 8 9 9 9
9 8 8 8 9 9 9 9 9 9 8 9 9 10 9 9 9 8 9 9 8 8 8 8 8 8 9 8 8 8 8 9 8 8 9 9 8 8 8 8 8 8 8 8 8 9 10 10 10
9 9 9 9 9 9 9 8 8 9 9 9 9 10 10 10 9 9 9 9 9 9 8 8 8 8 9 9 9 9 9 9 8 8 9 9 9 9 9 8 8 8 8 9 9 9 10 10 10
10 10 9 9 9 9 8 8 8 8 9 9 10 10 10 10 10 10 10 10 10 10 9 9 9 10 10 10 10 10 10 10 10 10 9 9 9 9 9 9 9 9 9 9 9 10 10 10 10
10 11 10 10 10 9 9 9 8 9 9 10 10 10 10 10 10 9 10 10 10 10 10 10 10 10 11 11 10 11 10 11 11 11 10 9 10 9 9 10 10 10 10 10 11 11 11 11 11
11 11 11 11 11 10 10 10 8 9 9 10 10 11 11 11 11 11 10 11 11 11 11 11 11 11 12 12 11 12 12 11 11 11 11 11 11 11 11 11 11 11 11 11 11 11 11 12 12
11 12 12 12 11 10 10 10 9 9 10 10 10 11 11 12 12 12 12 12 12 12 12 12 12 12 12 12 12 13 13 12 12 12 12 12 12 12 12 11 11 12 12 12 12 12 12 13 13
13 13 13 14 13 11 11 11 10 11 11 11 11 12 12 13 13 13 13 13 13 13 13 13 13 13 14 13 14 14 14 14 13 13 13 12 13 13 13 13 13 13 13 13 13 13 13 13 13
14 14 14 15 15 14 13 11 11 12 12 12 12 13 13 14 14 14 14 14 14 14 14 14 14 14 14 15 15 15 15 15 15 15 14 14 14 14 14 15 14 14 14 15 15 15 14 15 15
15 15 15 16 16 16 14 13 12 12 13 13 13 13 13 14 14 14 15 15 15 15 15 15 15 15 15 15 15 15 16 16 16 16 16 15 15 15 15 15 15 15 16 16 16 16 15 16 16
16 17 17 17 18 17 16 14 14 14 14 15 14 14 14 14 15 15 15 15 15 15 15 16 16 16 16 16 16 16 17 17 16 16 16 15 16 17 16 16 16 17 17 17 17 17 17 16 17
18 17 17 18 19 19 18 15 15 15 15 15 15 15 15 15 16 15 15 16 15 15 16 16 17 17 18 17 17 17 18 18 17 17 17 17 17 17 18 17 17 18 19 19 18 18 18 18 18
Wind_Direction
233 230 230 222 228 230 238 238 233 238 252 251 244 245 259 282 297 296 310 316 334 351 348 348 345 349 355 357 353 348 345 346 341 331 328 322 317 311 310 312 309 308 309 306 307 291 268 281 291
224 229 229 227 230 235 243 250 249 246 247 250 249 265 264 273 289 283 291 295 299 312 321 328 333 338 342 349 347 341 333 329 334 329 321 315 313 308 303 303 302 307 309 311 312 300 268 280 286
227 231 237 240 236 236 244 251 256 251 236 226 246 273 266 266 278 276 280 282 282 289 298 304 319 322 324 331 336 334 330 323 323 321 319 318 311 303 299 302 301 303 306 305 301 292 281 282 280
234 235 238 235 231 231 236 247 253 244 250 241 244 260 259 264 273 273 273 279 278 280 283 286 295 302 308 316 319 320 319 318 316 314 314 314 309 303 300 299 301 303 303 298 293 289 290 282 283
239 236 241 244 243 242 244 251 256 246 252 248 241 254 261 275 282 280 279 280 285 288 288 281 284 292 299 305 312 316 315 314 311 310 310 308 304 298 296 297 296 299 297 289 286 288 288 289 288
249 245 243 247 250 246 246 248 251 254 256 256 255 259 264 271 280 280 276 279 285 288 287 287 287 292 296 302 307 310 313 311 307 305 302 300 295 292 289 290 291 291 292 287 279 279 284 291 290
252 252 249 250 252 246 243 248 252 255 254 260 265 260 263 270 272 275 275 279 278 282 279 282 287 290 294 299 305 307 311 310 304 297 296 295 289 285 286 287 287 290 290 282 282 281 281 279 283
256 257 257 255 253 253 257 258 258 250 256 263 273 262 258 265 267 268 272 275 276 277 279 283 283 288 292 297 302 304 306 308 304 297 294 292 288 287 287 286 283 282 289 288 288 285 283 283 282
261 259 257 255 255 259 263 266 260 254 262 268 272 265 259 265 268 268 273 275 275 277 280 284 284 285 289 293 298 301 300 303 304 299 294 293 295 294 290 284 283 285 292 289 286 285 287 288 287
259 258 258 257 260 265 264 265 261 259 260 264 271 267 264 265 268 271 276 276 277 279 282 282 282 283 287 290 295 298 298 298 300 297 294 293 292 291 289 284 279 281 285 283 282 285 288 289 291
263 261 263 262 264 267 265 260 256 255 257 266 271 265 263 265 268 270 276 274 278 282 282 281 283 282 284 287 289 292 295 294 297 296 291 290 290 289 288 283 279 282 282 281 286 288 289 288 291
264 262 262 261 261 261 261 260 258 257 263 267 270 264 266 269 269 268 271 275 279 282 286 284 284 285 283 284 285 289 293 291 294 294 295 293 292 290 288 284 280 282 284 283 289 291 290 290 291
263 261 259 257 256 255 259 260 261 261 264 267 269 266 265 269 271 270 270 272 274 276 279 282 288 289 279 275 280 284 290 287 289 292 293 295 296 293 291 287 282 284 286 287 287 289 290 290 291
262 260 255 254 254 256 258 260 260 260 263 266 267 264 264 271 272 272 270 271 272 275 276 281 285 292 281 277 280 282 287 287 288 294 293 294 294 292 292 291 287 286 286 285 288 287 288 289 289
262 259 254 254 255 257 259 260 260 260 261 262 264 263 261 267 271 271 267 268 271 274 276 283 286 282 278 276 277 277 280 286 286 293 294 296 294 289 288 290 291 291 289 288 287 285 283 286 288
260 255 254 253 253 256 258 260 260 260 263 263 265 265 262 264 268 267 267 267 268 272 276 281 285 283 282 277 274 273 271 279 283 282 282 285 290 290 292 291 289 291 291 288 286 285 284 284 284
258 256 257 255 255 258 260 262 260 261 263 264 262 261 262 264 265 264 265 263 265 270 274 280 283 287 284 279 274 264 268 274 282 281 279 279 284 289 291 293 288 289 290 287 284 282 285 286 286
255 255 257 258 257 259 262 265 263 263 264 266 264 261 263 267 265 262 262 260 262 268 273 278 281 286 282 278 270 268 266 269 280 288 285 280 280 284 289 291 289 290 290 288 287 288 292 293 288
258 257 258 258 260 261 263 267 269 270 269 269 265 263 259 262 262 261 263 262 263 267 269 272 275 281 281 279 276 271 271 273 278 283 286 286 285 284 286 285 289 289 288 286 286 291 299 299 292
258 257 256 259 262 259 261 266 268 270 269 267 264 264 261 260 261 261 265 265 266 269 270 270 272 275 278 281 280 276 275 275 275 277 280 284 286 288 287 284 285 286 287 288 289 294 299 296 292
255 257 257 258 259 259 262 263 265 265 267 268 265 262 263 264 263 262 264 266 266 268 268 267 267 270 272 272 273 274 275 273 276 278 278 280 283 283 284 288 286 287 288 289 293 296 296 294 293
255 256 255 255 255 257 261 265 266 265 264 267 266 264 265 265 266 266 267 269 268 270 271 271 269 270 270 269 270 271 272 276 276 277 277 276 280 281 282 286 289 289 290 291 294 298 298 296 293
258 255 255 257 257 257 261 266 268 269 267 266 263 266 268 269 271 271 270 271 272 273 273 273 272 272 272 269 271 272 273 276 277 276 275 276 280 283 285 284 287 287 288 289 291 294 295 295 291
257 254 256 259 258 258 265 270 267 272 272 267 264 265 268 269 272 273 273 271 272 275 275 277 276 273 272 269 271 273 274 275 276 276 275 276 277 279 282 284 286 286 286 287 290 292 292 292 290
259 254 258 261 264 264 269 273 270 271 274 269 265 267 268 270 272 271 272 272 273 275 275 276 276 275 273 273 270 271 272 274 275 273 274 276 276 276 278 279 281 281 283 285 288 289 289 290 289
260 258 261 266 266 266 269 273 273 273 275 272 269 270 270 272 271 272 271 271 273 274 274 273 273 273 272 272 271 271 269 271 275 275 274 274 275 276 274 276 277 278 280 282 285 287 287 287 287
258 260 265 267 265 265 268 272 272 274 275 275 272 271 272 272 271 272 273 272 272 272 272 271 271 270 272 272 272 273 272 270 271 274 276 274 273 274 275 277 276 275 276 279 282 284 285 285 285
258 261 265 267 267 267 268 270 272 270 272 272 273 272 271 271 272 273 275 275 274 273 273 270 269 269 271 272 271 274 276 274 273 273 273 271 271 274 276 275 274 275 277 278 280 282 284 284 284
259 261 265 267 268 269 270 272 272 272 270 270 272 272 271 272 274 275 276 277 277 276 274 271 269 270 270 270 271 275 276 275 276 274 270 269 270 272 274 275 274 275 277 278 279 280 282 281 282
259 260 263 266 268 268 269 271 272 272 271 271 272 273 272 272 274 275 277 278 277 278 277 275 272 270 270 270 273 276 276 274 273 272 270 268 269 271 272 272 274 275 277 278 277 277 278 279 279